Location: Windsor
(43.2292°N, 89.3015°W)
Time: 07:29:27
(UTC+00:00)

DIWATA 2B (PO-101) - Pass Details

Date: 01 July 2022
Orbit: 583 x 599 km, 98.0° (Epoch: 15 August)

Event Time Altitude Azimuth Distance (km) Brightness Sun altitude
Exits shadow 08:05:38 37° 193° (SSW) 942 ? -17.8°
Maximum altitude 08:07:08 62° 259° (WSW) 677 ? -17.6°
Drops below altitude 10° 08:11:20 10° 340° (NNW) 1,949 ? -17.2°
Sets 08:13:32 0° 344° (NNW) 2,856 ? -17.0°
